Regional Weather Roundup
Issued by NWS

Home | Current Version | Previous Version | Graphics & Text | Print | Product List | Glossary On
Versions: 1 2 3 4 5 6 7 8 9 10 11 12 13 14 15 16 17 18 19 20 21 22 23 24 25 26 27 28 29 30 31 32 33 34 35 36 37 38 39 40 41 42 43 44 45 46 47 48 49 50
000
ASUS44 KMEG 060200
RWRTN
TENNESSEE HOURLY STATE WEATHER ROUNDUP
NATIONAL WEATHER SERVICE MEMPHIS TN
900 PM CDT THU MAY 05 2016

TNZ002-004-019-021-049-052-054-088>092-060300-
WEST TENNESSEE

CITY           SKY/WX    TMP DP  RH WIND       PRES   REMARKS
MEMPHIS INTL   CLEAR     63  42  46 NE12      29.98R
NWS MEMPHIS      N/A     61 N/A N/A MISG        N/A
JACKSON        CLEAR     53  42  66 N6        30.00R
DYERSBURG      CLEAR     57  43  58 NE8       30.00R
UNION CITY     CLEAR     52  45  76 CALM      29.99F
LEXINGTON      CLEAR     48  43  81 CALM      29.98S
$$

TNZ008-025-027-028-033-062-065-066-060300-
NORTH MIDDLE TENNESSEE

CITY           SKY/WX    TMP DP  RH WIND       PRES   REMARKS
NASHVILLE      CLOUDY    55  42  61 NW8       29.97R
CLARKSVILLE    CLEAR     52  43  71 NW8       29.98R
COOKEVILLE     MOCLDY    50  43  76 NW3       29.93R
CROSSVILLE     CLEAR     44  38  79 NW5       29.92R
$$

TNZ061-075-076-078-094-096-097-060300-
SOUTH MIDDLE TENNESSEE

CITY           SKY/WX    TMP DP  RH WIND       PRES   REMARKS
TULLAHOMA      PTCLDY    50  39  66 N8        29.95R
WINCHESTER     CLOUDY    50  41  71 CALM      29.94S
MCMINNVILLE    CLOUDY    52  43  71 N8        29.94R
COLUMBIA       CLOUDY    54  46  76 N3        29.96R
SHELBYVILLE    CLOUDY    55  45  67 NW9       29.96R
$$

TNZ017-018-042-046-047-060300-
NORTHEAST TENNESSEE

CITY           SKY/WX    TMP DP  RH WIND       PRES   REMARKS
TRI CITIES     CLOUDY    47  43  86 W6        29.83R
$$

TNZ012-013-036-069-073-074-060300-
CENTRAL EAST TENNESSEE

CITY           SKY/WX    TMP DP  RH WIND       PRES   REMARKS
KNOXVILLE      MOCLDY    50  40  68 NW6       29.89R
OAK RIDGE      MOCLDY    50  38  63 CALM      29.92R
GATLINBURG     CLOUDY    48  37  66 W3        29.88S
$$

TNZ083-085-099-060300-
SOUTHEAST TENNESSEE

CITY           SKY/WX    TMP DP  RH WIND       PRES   REMARKS
CHATTANOOGA    MOCLDY    50  42  74 NW6       29.92R
$$

SKY/WX REPORTED AS FAIR MEANS FEW OR NO CLOUDS BELOW
12 THOUSAND FEET.




USA.gov is the U.S. government's official web portal to all federal, state and local government web resources and services.